Lake Eufaula Weather Center

Moon Phase Calendar



Lake Eufaula Water Level
Online Cameras

 


      

Current Conditions in Georgetown
7/19/2024 5:01:03 AM

75°F
Feels Like 76
Clouds
Humidity
93%
Pressure
30"
Wind
3.6 mph (SW)
Dew Point
72°F
UV Index
0/10 (Low)
Visibility
6 mi

Hourly Forecast

Date & Time Fri, Jul 19
5:00 AM
Fri, Jul 19
6:00 AM
Fri, Jul 19
7:00 AM
Fri, Jul 19
8:00 AM
Fri, Jul 19
9:00 AM
Fri, Jul 19
10:00 AM
Fri, Jul 19
11:00 AM
Fri, Jul 19
12:00 PM
Fri, Jul 19
1:00 PM
Fri, Jul 19
2:00 PM
Fri, Jul 19
3:00 PM
Fri, Jul 19
4:00 PM
Fri, Jul 19
5:00 PM
Fri, Jul 19
6:00 PM
Fri, Jul 19
7:00 PM
Fri, Jul 19
8:00 PM
Fri, Jul 19
9:00 PM
Fri, Jul 19
10:00 PM
Fri, Jul 19
11:00 PM
Sat, Jul 20
12:00 AM
Sat, Jul 20
1:00 AM
Sat, Jul 20
2:00 AM
Sat, Jul 20
3:00 AM
Sat, Jul 20
4:00 AM
Sat, Jul 20
5:00 AM
Sat, Jul 20
6:00 AM
Sat, Jul 20
7:00 AM
Sat, Jul 20
8:00 AM
Sat, Jul 20
9:00 AM
Sat, Jul 20
10:00 AM
Sat, Jul 20
11:00 AM
Sat, Jul 20
12:00 PM
Sat, Jul 20
1:00 PM
Sat, Jul 20
2:00 PM
Sat, Jul 20
3:00 PM
Sat, Jul 20
4:00 PM
Sat, Jul 20
5:00 PM
Sat, Jul 20
6:00 PM
Sat, Jul 20
7:00 PM
Sat, Jul 20
8:00 PM
Sat, Jul 20
9:00 PM
Sat, Jul 20
10:00 PM
Sat, Jul 20
11:00 PM
Sun, Jul 21
12:00 AM
Sun, Jul 21
1:00 AM
Sun, Jul 21
2:00 AM
Sun, Jul 21
3:00 AM
Sun, Jul 21
4:00 AM
Condition
Clouds

Clouds

Clouds

Clouds

Clouds

Clouds

Rain

Rain

Rain

Rain

Rain

Clouds

Clouds

Clouds

Clouds

Clouds

Clouds

Clouds

Clouds

Clouds

Clouds

Rain

Rain

Clouds

Clouds

Rain

Rain

Rain

Rain

Clouds

Clouds

Clouds

Rain

Clouds

Clouds

Clouds

Clouds

Clouds

Clouds

Clouds

Clouds

Clouds

Clouds

Rain

Clouds

Clouds

Clouds

Clouds
Temperature 75°F74°F74°F75°F76°F75°F77°F78°F76°F77°F78°F80°F79°F79°F79°F78°F75°F75°F73°F72°F72°F72°F71°F71°F71°F71°F71°F72°F73°F75°F76°F81°F83°F84°F87°F86°F86°F85°F86°F83°F80°F78°F77°F75°F75°F75°F74°F74°F
Feels Like 76°F76°F75°F77°F78°F77°F78°F80°F78°F79°F79°F80°F79°F79°F79°F79°F77°F76°F74°F74°F74°F73°F73°F73°F72°F72°F72°F73°F75°F77°F78°F86°F89°F90°F92°F91°F92°F92°F92°F89°F80°F79°F78°F77°F77°F76°F76°F75°F
Cloudiness 28%30%30%34%86%100%100%100%100%100%100%100%100%100%100%100%100%100%76%80%84%81%22%29%30%48%59%66%100%100%100%100%100%100%100%100%100%100%93%95%17%42%54%42%37%32%14%14%
Visibility 6 mi6 mi6 mi6 mi6 mi6 mi4 mi6 mi6 mi6 mi6 mi6 mi6 mi6 mi6 mi6 mi6 mi6 mi6 mi6 mi6 mi6 mi6 mi6 mi6 mi6 mi4 mi6 mi6 mi6 mi6 mi6 mi6 mi6 mi6 mi6 mi6 mi6 mi6 mi6 mi6 mi6 mi6 mi6 mi6 mi6 mi6 mi6 mi
Precipitation 0%0%0%0%40%28%100%100%100%100%100%78%87%76%67%57%0%0%0%0%9%33%100%80%80%100%100%100%100%80%80%80%100%80%0%0%0%0%0%0%0%0%0%32%4%0%0%0%
Humidity 93%94%94%92%90%93%88%86%92%88%85%77%79%77%76%84%87%89%94%94%94%95%95%96%97%97%98%97%95%92%90%79%71%68%61%63%63%64%63%74%79%82%84%88%89%91%92%94%
Dew Point 72°F72°F72°F72°F73°F73°F73°F73°F73°F73°F73°F72°F72°F71°F71°F72°F71°F71°F71°F71°F70°F70°F70°F70°F70°F70°F70°F71°F72°F72°F73°F73°F73°F72°F71°F71°F72°F72°F72°F74°F72°F72°F72°F72°F72°F72°F72°F72°F
Pressure 30"30"30"30.03"30.06"30.06"30.06"30.09"30.09"30.06"30.06"30.06"30.06"30.03"30.03"30.03"30.03"30.03"30.06"30.06"30.06"30.06"30.06"30.03"30.03"30.06"30.06"30.09"30.09"30.12"30.09"30.09"30.09"30.09"30.06"30.06"30.03"30.03"30.03"30.03"30.06"30.06"30.06"30.06"30.06"30.06"30.06"30.06"
Wind Speed 3.6 mph3.3 mph2.6 mph2.5 mph2.1 mph4.4 mph3.8 mph3.2 mph2.7 mph2.9 mph4.4 mph3.8 mph3.5 mph4.8 mph4.5 mph2.5 mph3.7 mph4 mph4.9 mph4.4 mph4.5 mph4.2 mph3.8 mph4.2 mph4 mph4.3 mph3.5 mph3.1 mph1.9 mph1.1 mph3.4 mph3.4 mph3.1 mph4.8 mph6.4 mph6.4 mph6.6 mph5.3 mph4.6 mph3.3 mph4.6 mph4.8 mph5.2 mph4.7 mph5.2 mph4.8 mph4.5 mph3.8 mph
Wind
Direction
233°
SW
241°
WSW
240°
WSW
225°
SW
287°
WNW
326°
NW
346°
NNW
223°
SW
222°
SW
235°
SW
246°
WSW
267°
W
282°
WNW
285°
WNW
295°
WNW
335°
NNW
41°
NE
19°
NNE
52°
NE
71°
ENE
93°
E
98°
E
117°
ESE
112°
ESE
119°
ESE
112°
ESE
116°
ESE
122°
ESE
122°
ESE
85°
E
52°
NE
92°
E
113°
ESE
135°
SE
153°
SSE
168°
SSE
179°
S
196°
SSW
190°
S
162°
SSE
143°
SE
155°
SSE
149°
SSE
143°
SE
162°
SSE
163°
SSE
173°
S
184°
S

Daily Forecast

Date High Low Precip. Humidity
Today
Jul 19

Rain
80 °F
73 °F
100%
92%
Saturday
Jul 20

Rain
87 °F
71 °F
100%
71%
Sunday
Jul 21

Rain
94 °F
73 °F
100%
48%
Monday
Jul 22

Rain
93 °F
73 °F
82%
45%
Tuesday
Jul 23

Rain
95 °F
73 °F
100%
41%
Wednesday
Jul 24

Rain
86 °F
74 °F
100%
84%
Thursday
Jul 25

Rain
95 °F
73 °F
100%
46%
Friday
Jul 26

Rain
94 °F
72 °F
100%
44%
Saturday
Jul 27

Rain
93 °F
72 °F
100%
44%
Sunday
Jul 28

Rain
93 °F
74 °F
100%
45%
Monday
Jul 29

Rain
94 °F
77 °F
44%
45%
Tuesday
Jul 30

Clear
97 °F
75 °F
6%
39%
Wednesday
Jul 31

Rain
98 °F
79 °F
43%
38%
Thursday
Aug 1

Rain
103 °F
75 °F
81%
34%
Friday
Aug 2

Rain
101 °F
73 °F
100%
38%
Saturday
Aug 3

Clouds
96 °F
74 °F
80%
40%

Temperature 8-14 Day Outlook



Precipitation 8-14 Day Outlook




Quick Links
Lake Eufaula News
Lake Eufaula Photos
Lake Eufaula Videos




About Us
Contact Us
Site Map
Search Site
Advertise With Us
   
www.LakeEufaula.info
THE LAKE EUFAULA WEBSITE

Copyright 2024, Lakes Online
Privacy    |    Legal